User: anonymous   Login
Location: Fort Wayne
(41.1310°N, 85.1290°W)
Time: 09:17:31
(UTC-04:00)
Language:

Iridium 37 - Orbit

View from above orbital plane
View from above orbital plane
View from above satellite
View from above satellite

Ground track
Ground track

The orbit data is extracted from the following two-line orbital elements,

1 24968U 97056D   15242.44850894  .00000010  00000-0 -36156-5 0  9990
2 24968 086.3943 233.3428 0002358 088.4362 271.7104 14.34216592938401
Epoch (UTC): 30 August 2015 10:45:51
Eccentricity: 0.0002358
inclination: 86.3943°
perigee height: 776 km
apogee height: 779 km
right ascension of ascending node: 233.3428°
argument of perigee: 88.4362°
revolutions per day: 14.34216592
mean anomaly at epoch: 271.7104°
orbit number at epoch: 93840

The dashed part of the orbit path shows where the satellite is in the earth's shadow,  

DLR